GPS BIIR-5 (PRN 22) (26407 NORAD) Tracking and Keplerian Element Data

This shows tracking and keplerian element data for the satellite.

Feedback or suggestion? Click here.




ElementValue
Catalog26407
NameGPS BIIR-5 (PRN 22)
Epoch Orbit17510
Epoch Day159.34667521
Epoch Year2024
RAAN244.5766
Inclination55.07
Eccentricity0.0144933
Argument of Perigee294.562
Mean Anonmoly22.793
Mean Motion2.00560151
Decay Rate9E-08
L11 26407U 00040A 24159.34667521 .00000009 00000+0 00000+0 0 9995
L22 26407 55.0700 244.5766 0144933 294.5620 22.7930 2.00560151175101



Live tracking and technical data element details for GPS BIIR-5 (PRN 22) (NORAD 26407). GPS BIIR-5 (PRN 22) can be tracked NOW for your location showing map with azimuth and elevation plus other details from your city location.







IsCatalogInMostPopularTable: catalog: 26407, numindb: 635
Update: records affected: 1



GetName: 26407 GPS BIIR-5 (PRN 22)

Hit Count: updated at: Mon, 17 Jun 2024 23:45:45 GMT